Theta_e
322 322 321 323 328 326 325 327 327 329 328 328 327 326 327 333 335 342 336 337 336 334 326 322 318 319 318 321 331 332 332 331 321 314 313 311 311 318 320 317 313 314 316 315 314 320 316 317 318
322 322 322 325 325 325 321 324 327 326 328 328 326 325 326 333 335 336 337 336 337 334 322 318 314 314 319 322 326 331 333 330 316 312 311 310 311 323 330 325 315 312 312 312 311 311 312 313 314
322 321 322 326 326 321 321 322 324 327 327 326 325 325 328 332 335 336 336 336 336 330 319 314 312 313 315 318 331 331 332 328 316 310 309 310 310 321 330 326 318 311 313 312 311 311 312 313 314
321 322 323 323 325 320 320 322 325 324 324 325 324 326 327 334 335 335 336 336 335 333 317 315 313 312 313 317 329 330 331 321 315 311 309 309 310 312 324 327 321 313 312 314 316 316 313 314 314
320 323 325 324 322 319 320 323 324 322 322 323 322 325 331 334 335 335 335 335 333 331 318 316 315 315 314 314 325 330 323 319 316 314 312 310 309 309 316 327 321 319 316 327 325 323 322 313 316
321 323 325 325 322 319 320 322 323 322 321 322 320 328 333 332 334 334 334 336 334 326 318 318 318 318 317 316 316 326 319 319 317 316 314 313 311 310 311 326 325 325 322 318 314 317 314 312 314
321 326 325 324 321 321 320 321 322 320 320 321 322 324 332 333 334 333 333 336 337 331 320 319 319 320 319 319 317 317 320 319 319 317 316 315 314 312 311 323 328 325 324 316 313 314 311 312 313
320 323 325 324 321 321 320 321 321 320 320 322 323 322 329 333 334 333 333 336 336 333 327 321 320 320 320 320 320 319 319 320 321 320 319 318 316 313 312 313 324 326 325 318 316 315 313 313 313
319 323 324 324 323 320 320 319 319 318 319 322 321 328 328 333 334 333 333 335 337 335 334 331 324 322 321 321 321 321 321 321 322 322 321 321 319 317 316 312 311 312 312 311 312 312 312 313 313
319 322 324 323 321 319 320 319 318 317 319 320 320 331 333 333 333 333 334 335 337 335 334 334 331 329 326 323 322 323 323 323 323 323 323 323 322 321 321 315 313 312 312 313 312 312 312 315 318
318 322 322 319 318 320 320 319 318 318 317 318 320 328 332 333 334 333 334 335 335 335 335 335 335 332 329 327 324 324 324 324 324 324 324 324 324 323 323 321 317 316 316 316 314 313 314 315 316
319 319 319 317 317 319 319 318 318 318 317 319 319 319 330 333 334 334 334 335 335 335 334 332 331 335 331 330 328 327 326 325 325 325 325 325 325 325 325 325 324 321 319 319 317 316 317 317 318
318 316 316 316 316 318 318 318 318 318 317 317 319 321 329 331 332 333 333 334 335 335 335 331 330 330 333 333 330 331 329 328 327 327 327 326 326 326 326 325 325 324 321 320 320 319 319 319 320
317 316 315 315 315 315 317 316 315 317 317 316 315 320 326 329 330 330 331 332 333 335 335 334 330 329 330 331 331 331 333 333 329 328 328 328 328 327 327 327 326 326 325 322 321 321 321 322 322
316 315 315 315 315 314 315 315 314 315 315 314 314 316 321 325 328 329 329 330 331 333 334 335 334 330 328 328 330 332 331 330 332 329 329 329 329 328 328 328 327 326 326 326 325 324 323 322 321
315 316 316 315 315 313 315 318 315 313 313 313 314 315 317 320 324 328 329 330 331 331 333 334 334 332 326 329 331 332 330 331 331 331 330 327 328 329 328 327 325 324 324 324 324 324 323 323 323
314 315 316 313 314 313 313 317 311 313 313 314 314 314 315 316 320 326 328 330 330 331 331 333 334 333 328 324 327 328 328 328 328 329 330 330 328 327 327 326 327 326 324 325 325 325 324 324 324
315 314 315 313 312 313 313 314 312 312 314 315 314 314 314 313 314 316 325 328 330 331 332 332 333 334 329 325 325 327 328 328 328 328 329 330 331 330 329 328 327 326 325 325 324 324 324 324 324
315 314 314 314 313 313 313 314 313 313 313 314 315 315 315 315 314 313 313 315 325 329 331 332 333 334 332 328 327 328 328 328 329 332 332 335 334 329 329 330 328 327 327 325 325 325 325 326 326
314 314 314 312 312 313 313 312 312 313 313 314 314 315 315 314 313 313 312 312 312 313 319 328 330 332 333 332 330 327 330 331 332 334 333 332 331 329 328 329 328 328 327 326 326 326 327 325 325
313 314 312 314 312 312 312 312 313 312 313 313 313 313 312 312 313 312 311 311 311 311 311 314 325 330 332 333 332 334 334 333 332 333 331 331 331 327 327 326 329 327 327 326 327 327 326 326 325
312 312 313 312 312 311 311 307 312 309 309 310 311 310 311 311 312 312 312 311 311 311 310 310 312 323 329 331 332 329 333 330 329 327 329 327 327 326 325 326 325 326 327 327 325 324 324 326 325
313 312 313 314 313 313 311 309 311 309 310 310 312 313 313 313 312 312 312 312 312 312 312 311 310 312 324 329 330 331 330 328 326 325 325 324 325 325 325 324 324 323 323 324 323 324 325 323 325
310 311 312 312 311 310 310 308 309 308 309 311 313 314 313 313 312 312 311 311 312 312 312 311 309 310 313 322 327 327 327 325 325 323 323 323 323 323 322 322 322 322 322 321 322 321 321 321 319
311 310 310 310 310 310 306 310 310 310 312 312 312 313 312 312 311 311 311 311 311 312 313 313 312 310 310 312 315 321 320 323 324 323 324 323 322 320 318 316 315 316 316 315 315 317 316 317 318
310 309 312 312 314 311 306 309 309 308 311 314 313 312 312 312 312 311 311 311 311 311 313 313 314 314 314 314 314 315 316 316 315 314 312 312 311 311 311 311 311 311 310 310 310 310 310 309 309
310 310 311 308 303 311 308 309 309 308 310 312 312 312 312 312 311 311 310 311 311 311 311 312 312 313 313 312 312 312 311 311 311 311 311 311 311 310 309 309 309 308 308 308 308 308 307 307 307
309 308 309 310 307 310 310 310 309 309 309 310 310 311 312 312 311 310 310 310 310 310 311 311 311 311 311 311 311 311 311 311 310 308 308 307 307 306 305 304 303 302 301 301 301 301 301 300 300
308 309 310 309 312 313 311 308 309 309 309 311 310 311 312 312 311 310 310 310 310 310 310 311 311 311 311 310 309 308 307 306 305 305 303 302 301 301 301 301 300 299 298 297 297 297 297 296 296
308 310 309 310 310 308 312 310 309 309 308 311 311 311 312 312 310 310 310 310 310 310 310 310 309 308 307 306 305 304 303 302 302 301 301 299 298 298 297 296 296 296 296 296 296 296 296 296 296
Wind_Speed
3 7 6 4 1 3 4 3 8 7 6 8 10 8 12 17 6 7 15 14 14 12 13 12 12 10 11 13 13 11 9 9 10 12 13 12 12 13 14 16 14 13 13 13 12 12 10 12 12
4 5 3 5 3 3 3 7 8 8 13 11 8 4 9 10 10 19 18 18 16 12 11 12 11 12 14 14 14 11 7 8 11 15 12 12 13 17 15 13 13 14 14 13 13 12 13 15 15
2 4 4 3 3 3 5 7 10 14 8 7 5 8 8 7 11 12 22 19 13 15 13 12 12 13 14 15 13 11 7 9 12 12 10 12 14 16 15 11 13 14 13 14 14 13 13 13 14
2 3 5 2 4 6 7 7 19 12 7 6 5 10 9 9 6 14 25 23 18 14 14 14 14 13 14 17 14 10 8 10 11 11 11 11 12 13 13 11 13 13 14 14 14 12 12 12 14
3 5 4 4 7 6 6 16 16 6 8 9 1 8 10 8 9 24 23 21 17 15 14 14 14 14 15 14 14 10 8 10 10 11 11 11 11 12 12 11 10 13 14 15 12 13 12 14 14
4 4 3 4 5 6 6 6 10 9 10 10 1 16 7 11 18 22 22 16 12 15 14 15 14 13 13 12 12 9 8 9 10 10 10 10 10 10 10 12 10 11 10 11 10 11 12 12 12
3 3 6 4 8 5 7 8 6 10 7 8 3 5 11 15 18 22 21 20 12 11 14 14 13 13 12 11 11 9 8 7 8 9 9 9 9 10 10 11 9 6 4 5 8 10 10 10 9
3 2 9 2 7 4 9 9 2 6 6 10 1 2 10 19 22 23 20 20 16 12 12 12 12 11 11 10 10 8 7 7 7 8 8 8 8 8 7 7 8 6 6 5 5 7 7 7 7
3 2 5 5 5 7 16 6 4 6 9 8 4 11 22 22 25 25 23 21 16 14 16 8 11 11 10 10 9 7 6 5 5 6 6 5 6 5 5 5 2 3 4 3 3 4 4 4 6
5 3 8 2 2 9 14 11 10 6 12 6 7 14 15 21 25 26 26 24 19 18 17 17 10 9 7 8 7 6 5 4 4 4 3 4 3 3 5 3 2 3 4 4 4 2 3 4 4
5 4 6 10 8 17 14 7 10 7 6 14 15 17 16 21 23 24 22 22 22 18 21 19 17 13 12 10 9 8 7 5 3 3 2 1 1 1 2 2 1 2 3 2 2 2 1 2 1
4 3 4 5 5 10 13 11 5 3 6 13 9 15 18 20 22 23 22 20 20 19 17 21 19 16 13 13 10 9 7 7 5 5 4 3 2 2 3 3 3 3 3 2 2 1 3 3 3
3 6 7 9 9 7 11 8 4 6 7 9 13 12 16 18 19 19 20 20 20 22 21 18 21 20 17 13 12 10 9 9 8 7 6 5 5 4 4 4 5 4 4 4 4 4 3 3 4
9 10 14 9 9 5 7 4 3 6 11 8 10 15 15 17 18 17 19 20 20 20 20 19 18 21 21 19 17 14 13 9 10 10 8 7 8 6 6 7 6 6 6 6 6 6 6 6 6
15 6 6 9 10 3 4 3 5 12 11 10 10 13 14 15 17 18 19 20 21 21 20 19 18 17 21 20 19 18 17 15 12 11 11 9 9 10 10 9 8 8 8 8 8 10 11 12 14
6 5 6 3 6 1 3 3 5 13 12 10 9 12 14 15 17 17 16 18 18 19 21 20 20 19 16 19 17 17 16 15 16 13 11 9 10 10 11 10 11 12 12 12 12 14 13 15 17
7 6 6 4 4 5 4 3 5 8 7 10 13 13 13 12 15 17 17 16 18 18 19 20 21 22 20 16 16 16 15 14 14 13 13 11 10 9 11 10 12 14 15 16 16 16 18 20 20
7 4 8 7 7 2 5 4 6 8 8 6 9 11 10 12 13 14 18 18 16 17 17 18 21 22 20 18 18 18 17 16 15 15 14 13 13 13 13 13 12 12 12 13 15 17 19 22 23
8 8 5 5 2 4 7 5 8 16 12 9 10 15 13 11 14 16 17 20 25 24 23 22 21 23 22 21 22 22 21 20 18 18 18 17 17 16 17 16 16 17 15 17 19 22 23 25 26
2 8 6 5 5 1 6 9 7 10 11 13 13 13 12 13 14 16 17 17 19 22 25 26 25 24 24 23 21 21 21 21 19 19 19 19 18 15 17 20 20 19 21 21 22 24 27 26 27
4 6 5 5 4 2 1 5 7 3 7 10 12 11 10 11 11 12 10 13 17 20 23 26 27 25 22 24 21 19 20 19 17 16 16 16 15 15 16 19 21 23 22 23 23 23 25 27 28
5 4 9 11 7 3 5 4 6 6 7 7 10 11 11 12 12 10 9 12 13 14 16 21 25 27 24 22 21 18 18 17 15 13 11 11 11 12 13 13 17 18 20 24 23 21 23 25 28
3 7 6 5 4 1 3 2 4 9 7 7 12 12 11 8 10 11 10 9 8 9 10 12 18 23 27 24 17 12 12 13 12 11 8 7 7 9 10 11 13 15 17 19 19 20 22 23 27
7 8 6 3 3 1 7 6 4 5 8 7 14 14 15 13 12 11 9 8 9 8 7 8 11 16 19 24 22 15 14 8 9 9 7 6 6 7 10 11 13 14 15 16 20 21 23 24 27
5 7 2 1 0 5 6 4 8 2 1 10 14 18 16 15 12 13 12 11 12 11 12 12 12 14 14 16 17 18 11 9 8 7 4 4 4 3 5 6 7 10 13 15 17 19 22 22 24
8 7 5 6 5 4 5 6 6 2 4 21 23 22 18 18 17 15 14 16 16 15 16 17 17 18 17 16 15 13 11 10 9 8 6 4 3 2 4 6 7 9 11 14 16 17 19 21 22
6 6 3 7 2 3 4 5 1 3 3 17 24 24 21 19 19 18 17 18 19 19 19 20 20 21 20 18 16 15 13 10 9 7 5 3 3 5 6 7 9 11 12 14 16 17 19 20 22
3 7 3 1 5 4 5 4 6 7 10 10 15 24 23 22 21 20 19 19 19 19 19 19 18 18 18 16 14 13 10 8 7 6 4 4 5 6 7 9 10 13 15 17 19 20 21 23 24
3 5 4 5 5 5 3 6 3 14 18 16 19 25 28 26 24 22 21 20 20 19 18 18 18 17 16 14 12 10 9 7 5 4 5 5 7 8 10 13 15 17 19 21 23 24 25 27 28
3 5 7 5 5 1 4 5 2 3 17 24 25 28 28 27 25 24 23 21 20 20 19 18 17 15 14 13 11 10 8 7 5 5 6 7 9 11 14 17 19 20 22 23 25 26 27 29 31
Wind_Direction
5 56 1 292 302 205 126 68 87 95 102 75 59 44 78 51 26 104 131 147 148 167 152 145 132 130 127 121 115 108 97 81 65 73 81 83 82 87 79 76 81 94 92 91 90 92 88 84 83
45 60 316 267 211 211 96 119 117 93 90 95 82 38 81 69 85 130 129 140 152 153 152 138 134 131 129 124 120 113 105 65 63 76 79 84 82 85 82 72 73 84 86 85 83 83 83 89 91
45 39 291 233 252 353 119 150 98 95 105 102 112 56 31 91 105 138 140 137 137 145 143 130 130 125 123 122 118 119 107 71 65 73 81 83 82 91 96 73 77 79 82 84 84 88 89 92 90
6 256 250 274 242 24 109 124 115 113 88 63 35 90 87 79 105 155 143 135 148 135 131 129 122 124 124 133 122 124 103 83 81 79 84 86 88 98 105 91 84 76 86 83 81 83 87 88 92
329 283 259 244 77 89 29 96 126 142 127 123 28 95 100 102 128 137 138 149 149 145 139 129 125 129 130 133 132 124 109 92 82 78 81 85 86 88 95 94 86 79 87 86 88 87 86 84 92
260 263 268 211 105 91 93 110 137 121 122 93 149 106 93 139 136 142 140 147 143 148 144 135 131 130 126 127 130 128 113 101 87 81 80 82 83 87 89 82 88 84 83 84 89 86 91 83 94
245 242 260 239 119 138 130 143 154 128 141 144 61 89 134 139 152 147 145 140 149 166 144 140 137 136 133 132 132 137 127 118 102 92 87 84 87 91 100 103 100 93 97 68 79 84 84 84 84
272 238 266 303 136 134 130 150 108 124 79 114 126 125 166 159 157 150 153 147 172 171 147 152 148 148 144 140 138 144 139 123 110 93 83 78 80 91 99 114 123 108 100 118 81 86 84 73 68
211 304 249 192 244 125 146 124 91 95 110 93 97 69 149 163 158 154 161 160 177 180 154 173 163 162 157 153 153 157 153 138 115 98 85 81 76 78 86 85 110 66 58 80 113 98 83 64 49
200 190 253 300 193 134 162 152 143 136 128 118 119 117 151 158 163 163 169 169 177 181 170 170 180 173 179 172 173 173 173 166 149 128 108 69 56 51 54 45 42 34 18 31 75 109 87 40 45
209 210 251 48 62 129 160 166 149 163 172 174 169 154 161 162 172 174 179 181 180 198 191 181 175 187 193 206 195 198 197 196 193 174 189 137 62 16 6 30 16 33 27 48 53 68 31 9 25
233 253 47 105 114 145 155 125 136 224 106 104 155 179 170 174 181 186 185 188 188 196 214 204 190 183 206 211 205 215 211 216 218 228 229 233 254 268 312 335 339 359 353 18 354 355 352 356 351
228 134 92 134 131 96 135 133 130 149 137 141 136 170 178 183 191 195 195 196 197 200 219 215 203 203 201 211 212 214 230 226 230 236 240 249 260 270 290 298 305 309 319 329 336 333 336 337 352
208 146 134 135 134 124 133 107 128 145 180 169 157 173 185 192 193 197 200 203 206 208 212 233 220 216 215 217 224 212 208 233 231 244 251 251 264 274 278 281 289 300 311 310 314 312 308 306 304
131 121 121 138 160 132 150 106 215 166 170 181 199 191 189 199 201 203 203 204 205 211 215 223 241 231 224 227 228 225 229 229 235 245 253 256 258 270 276 281 291 292 297 301 306 310 311 308 301
183 160 142 151 160 164 169 217 141 161 167 187 202 191 197 196 203 208 209 208 212 212 213 213 229 243 235 227 233 236 235 228 238 242 249 262 255 260 271 274 272 275 283 284 288 292 291 294 298
215 176 186 146 262 141 195 190 149 152 180 216 209 194 198 197 208 202 205 212 209 215 213 213 221 235 242 230 226 230 235 235 234 238 241 250 264 259 268 272 269 263 265 271 278 283 286 289 290
174 247 188 149 196 232 178 223 158 165 182 196 186 183 184 197 217 213 204 206 211 214 219 222 223 237 239 236 230 230 234 240 241 245 245 245 253 266 263 267 266 267 274 286 288 290 287 289 293
188 203 135 112 99 172 213 215 215 177 181 202 197 184 182 181 192 200 214 210 211 210 210 217 222 232 243 241 227 231 237 241 246 252 260 262 262 265 267 268 276 274 278 282 283 284 288 290 296
249 199 171 65 100 104 204 238 232 246 194 197 219 200 172 176 210 223 224 221 223 221 219 214 219 225 234 237 236 234 240 246 251 255 260 263 266 264 264 272 273 277 278 282 288 289 292 293 291
233 177 153 130 140 252 357 273 215 193 147 192 222 208 208 190 207 234 227 229 230 229 224 217 215 215 225 236 237 233 237 242 248 253 262 264 265 260 254 261 270 276 284 286 290 292 296 300 293
186 69 117 128 143 214 165 266 197 156 162 184 208 219 212 210 191 216 219 229 230 237 232 228 220 212 207 227 240 246 231 235 247 253 265 264 263 267 264 263 264 268 278 286 290 291 292 296 298
161 108 124 139 176 93 198 94 273 131 178 191 190 189 177 176 195 199 215 211 216 217 214 215 214 209 205 205 229 220 220 226 225 239 255 268 281 274 277 272 271 271 274 277 285 290 293 291 294
148 94 67 63 98 278 201 161 242 190 199 164 162 172 173 172 182 175 173 175 166 172 165 161 177 195 202 204 206 212 240 221 218 234 244 250 267 285 278 280 274 280 289 288 290 291 291 293 293
148 148 110 100 166 224 344 188 241 182 133 161 156 162 168 170 171 153 159 155 148 146 140 139 142 153 173 189 195 202 221 173 176 194 182 190 203 233 278 295 297 291 291 291 292 289 291 293 292
198 168 150 177 185 215 351 228 242 96 107 159 163 164 164 157 161 159 157 146 141 141 136 133 132 131 135 143 153 159 148 140 130 127 113 103 76 28 351 335 325 319 315 314 315 315 315 312 310
204 206 120 104 37 75 208 265 324 154 219 147 152 159 164 168 169 160 154 145 141 138 133 131 132 130 128 127 126 126 125 121 119 116 108 81 35 6 354 347 344 339 333 330 330 328 325 322 322
215 137 81 351 132 226 239 254 225 209 198 168 162 167 171 174 168 163 159 152 148 145 141 138 136 133 130 129 128 126 125 118 106 88 69 47 25 11 2 353 348 343 336 332 328 326 323 321 320
164 182 200 154 165 173 169 254 227 199 187 181 171 176 175 175 173 169 164 159 156 151 147 144 142 139 136 135 129 125 118 108 99 83 60 38 22 2 350 342 337 335 332 329 326 325 324 322 321
334 210 178 157 233 148 144 268 292 272 177 176 176 181 178 181 175 175 171 167 163 159 155 152 148 148 141 135 130 126 120 108 85 56 31 12 358 350 346 343 340 336 333 331 329 328 328 327 327